IDG1872 FMEE-VOMM

Flight info

Callsign IDG1872
Flight time N/A
Altitude 37000
Route LOMRU DCT EPTEK DCT 15S060E 03S069E/N0452F390 DCT RUSAP DCT MLE DCT MUGBA DCT TVM DCT GUTEG DCT MDI DCT TTR
Aircraft A20N/M-SDE2E3FGHIRWXY/LB1

Departure

Time 2026-05-04 09:19
Airport Roland Garros Airport (FMEE)

Arrival

Time N/A
Airport Chennai International Airport (VOMM)
Time Latitude Longitude Altitude Speed Heading
2026-05-04 08:57 -20.89117 55.51287 65 ft 0 kts 211°
2026-05-04 09:11 -20.89104 55.51295 55 ft 4 kts 211°
2026-05-04 09:11 -20.89081 55.51310 56 ft 4 kts 209°
2026-05-04 09:12 -20.89059 55.51326 58 ft 4 kts 229°
2026-05-04 09:12 -20.89047 55.51349 57 ft 4 kts 271°
2026-05-04 09:14 -20.89052 55.51368 59 ft 0 kts 296°
2026-05-04 09:15 -20.89049 55.51363 59 ft 3 kts 296°
2026-05-04 09:15 -20.89031 55.51323 55 ft 9 kts 296°
2026-05-04 09:17 -20.88619 55.50486 47 ft 4 kts 113°
2026-05-04 09:18 -20.88620 55.50551 48 ft 15 kts 98°
2026-05-04 09:18 -20.88677 55.50854 45 ft 71 kts 102°
2026-05-04 09:18 -20.88834 55.51569 49 ft 127 kts 103°
2026-05-04 09:18 -20.89041 55.52618 195 ft 151 kts 102°
2026-05-04 09:19 -20.89325 55.53707 609 ft 154 kts 102°
2026-05-04 09:19 -20.89360 55.54835 1064 ft 155 kts 76°
2026-05-04 09:19 -20.88699 55.55790 1495 ft 169 kts 46°
2026-05-04 09:19 -20.87766 55.56657 1895 ft 187 kts 45°
2026-05-04 09:20 -20.86751 55.57618 2299 ft 202 kts 46°
2026-05-04 09:20 -20.85712 55.58729 2591 ft 223 kts 51°
2026-05-04 09:20 -20.84681 55.60110 2801 ft 250 kts 55°
2026-05-04 09:20 -20.83602 55.61615 3255 ft 266 kts 54°
2026-05-04 09:21 -20.82419 55.63195 3800 ft 277 kts 52°
2026-05-04 09:21 -20.81160 55.64791 4515 ft 281 kts 51°
2026-05-04 09:21 -20.79923 55.66402 5360 ft 280 kts 53°
2026-05-04 09:21 -20.78678 55.68008 6148 ft 282 kts 52°
2026-05-04 09:22 -20.77408 55.69627 6862 ft 286 kts 52°
2026-05-04 09:22 -20.76123 55.71268 7547 ft 290 kts 52°
2026-05-04 09:22 -20.74823 55.72929 8224 ft 294 kts 52°
2026-05-04 09:22 -20.73505 55.74615 8914 ft 297 kts 52°
2026-05-04 09:23 -20.72174 55.76319 9612 ft 301 kts 52°
2026-05-04 09:23 -20.70823 55.78048 10211 ft 307 kts 52°
2026-05-04 09:23 -20.69417 55.79849 10499 ft 325 kts 52°
2026-05-04 09:23 -20.67932 55.81750 10741 ft 342 kts 51°
2026-05-04 09:25 -20.55978 55.96158 13849 ft 387 kts 47°
2026-05-04 09:25 -20.54123 55.98261 14277 ft 390 kts 47°
2026-05-04 09:26 -20.52255 56.00382 14727 ft 394 kts 47°
2026-05-04 09:26 -20.50369 56.02522 15187 ft 397 kts 47°
2026-05-04 09:26 -20.48472 56.04675 15648 ft 400 kts 47°
2026-05-04 09:26 -20.46560 56.06845 16111 ft 403 kts 47°
2026-05-04 09:27 -20.44634 56.09030 16572 ft 406 kts 47°
2026-05-04 09:27 -20.42620 56.11163 17017 ft 410 kts 41°
2026-05-04 09:27 -20.40393 56.13079 17474 ft 412 kts 38°
2026-05-04 09:27 -20.38087 56.14914 17910 ft 415 kts 36°
2026-05-04 09:28 -20.35752 56.16686 18339 ft 418 kts 35°
2026-05-04 09:28 -20.33353 56.18463 18727 ft 420 kts 34°
2026-05-04 09:28 -20.30939 56.20234 19114 ft 422 kts 34°
2026-05-04 09:28 -20.28516 56.22011 19482 ft 424 kts 34°
2026-05-04 09:29 -20.26080 56.23803 19856 ft 426 kts 34°
2026-05-04 09:29 -20.23703 56.25558 20221 ft 428 kts 35°
2026-05-04 09:29 -20.21244 56.27377 20609 ft 430 kts 35°
2026-05-04 09:29 -20.18782 56.29202 21019 ft 432 kts 35°
2026-05-04 09:30 -20.16310 56.31036 21431 ft 434 kts 35°
2026-05-04 09:30 -20.13824 56.32880 21827 ft 437 kts 35°
2026-05-04 09:30 -20.11319 56.34737 22245 ft 439 kts 35°
2026-05-04 09:30 -20.08810 56.36596 22750 ft 440 kts 35°
2026-05-04 09:31 -20.06325 56.38436 23207 ft 441 kts 35°
2026-05-04 09:31 -20.03797 56.40308 23636 ft 444 kts 35°
2026-05-04 09:31 -20.01251 56.42192 23993 ft 446 kts 35°
2026-05-04 09:31 -19.98693 56.44084 24356 ft 448 kts 35°
2026-05-04 09:32 -19.96126 56.45982 24718 ft 450 kts 35°